TimeEST,TemperatureF,Dew PointF,Humidity,Sea Level PressureIn,VisibilityMPH,Wind Direction,Wind SpeedMPH,Gust SpeedMPH,PrecipitationIn,Events,Conditions,WindDirDegrees,DateUTC
12:53 AM,25.0,21.9,88,29.98,10.0,NNW,6.9,-,N/A,,Overcast,330,2013-12-23 05:53:00
1:53 AM,25.0,21.9,88,30.00,10.0,NNW,3.5,-,N/A,,Overcast,330,2013-12-23 06:53:00
2:53 AM,25.0,21.9,88,30.03,10.0,WNW,3.5,-,N/A,,Overcast,290,2013-12-23 07:53:00
3:22 AM,24.8,21.2,86,30.03,7.0,NNW,4.6,-,N/A,,Overcast,330,2013-12-23 08:22:00
3:53 AM,25.0,21.9,88,30.04,5.0,North,-9999.0,-,N/A,,Overcast,0,2013-12-23 08:53:00
4:00 AM,24.8,21.2,86,30.04,-9999.0,WNW,4.6,-,N/A,,Unknown,290,2013-12-23 09:00:00
4:31 AM,24.8,21.2,86,30.04,5.0,NNW,4.6,-,N/A,,Overcast,330,2013-12-23 09:31:00
4:53 AM,25.0,21.9,88,30.04,5.0,WNW,6.9,-,N/A,,Overcast,290,2013-12-23 09:53:00
5:53 AM,24.1,21.9,91,30.07,7.0,West,5.8,-,N/A,,Overcast,280,2013-12-23 10:53:00
6:53 AM,24.1,21.0,88,30.13,7.0,WNW,8.1,-,N/A,,Overcast,300,2013-12-23 11:53:00
7:05 AM,24.8,21.2,86,30.10,10.0,West,6.9,-,N/A,,Overcast,280,2013-12-23 12:05:00
7:53 AM,24.1,21.0,88,30.15,10.0,WNW,9.2,-,N/A,,Overcast,290,2013-12-23 12:53:00
8:06 AM,24.8,19.4,80,30.12,10.0,WNW,8.1,-,N/A,,Overcast,290,2013-12-23 13:06:00
8:53 AM,24.1,19.9,84,30.19,10.0,West,11.5,-,0.00,,Overcast,280,2013-12-23 13:53:00
9:53 AM,25.0,19.9,81,30.22,10.0,NW,6.9,-,0.00,,Overcast,310,2013-12-23 14:53:00
10:53 AM,25.0,19.9,81,30.24,9.0,West,8.1,-,N/A,,Overcast,280,2013-12-23 15:53:00
11:53 AM,25.0,19.9,81,30.25,10.0,WNW,12.7,-,0.00,,Overcast,290,2013-12-23 16:53:00
12:07 PM,24.8,19.4,80,30.20,10.0,West,9.2,-,0.00,,Overcast,280,2013-12-23 17:07:00
12:53 PM,25.0,19.0,78,30.24,10.0,West,11.5,-,0.00,,Overcast,280,2013-12-23 17:53:00
1:14 PM,26.6,19.4,74,30.21,10.0,West,8.1,-,N/A,,Overcast,270,2013-12-23 18:14:00
1:53 PM,26.1,19.9,78,30.25,10.0,West,12.7,-,0.00,,Overcast,280,2013-12-23 18:53:00
2:53 PM,26.1,21.0,81,30.25,7.0,WNW,8.1,-,0.00,,Overcast,290,2013-12-23 19:53:00
3:53 PM,26.1,21.0,81,30.27,2.5,WNW,6.9,-,0.00,Snow,Light Snow,290,2013-12-23 20:53:00
4:01 PM,26.6,21.2,80,30.23,5.0,WNW,6.9,-,0.00,Snow,Light Snow,290,2013-12-23 21:01:00
4:08 PM,26.6,21.2,80,30.23,5.0,West,5.8,-,0.00,Snow,Light Snow,280,2013-12-23 21:08:00
4:27 PM,26.6,21.2,80,30.24,5.0,WNW,4.6,-,0.00,,Haze,290,2013-12-23 21:27:00
4:40 PM,26.6,21.2,80,30.24,5.0,WNW,4.6,-,0.00,,Haze,290,2013-12-23 21:40:00
4:53 PM,26.1,21.0,81,30.28,5.0,WNW,3.5,-,0.00,Snow,Light Snow,300,2013-12-23 21:53:00
4:58 PM,26.6,21.2,80,30.24,1.8,NW,3.5,-,0.00,Snow,Light Snow,310,2013-12-23 21:58:00
5:03 PM,26.6,21.2,80,30.24,3.0,Calm,Calm,-,0.00,Snow,Light Snow,0,2013-12-23 22:03:00
5:53 PM,25.0,21.0,85,30.28,5.0,WNW,3.5,-,0.00,Snow,Light Snow,290,2013-12-23 22:53:00
6:12 PM,24.8,21.2,86,30.25,5.0,NW,3.5,-,0.00,Snow,Light Snow,310,2013-12-23 23:12:00
6:27 PM,26.6,21.2,80,30.25,2.5,Calm,Calm,-,0.00,Snow,Light Snow,0,2013-12-23 23:27:00
6:46 PM,24.8,21.2,86,30.25,3.0,Calm,Calm,-,0.00,Snow,Light Snow,0,2013-12-23 23:46:00
6:53 PM,26.1,21.9,84,30.29,6.0,Calm,Calm,-,0.00,,Overcast,0,2013-12-23 23:53:00
7:14 PM,24.8,21.2,86,30.26,2.5,Calm,Calm,-,0.00,Snow,Light Snow,0,2013-12-24 00:14:00
7:25 PM,26.6,21.2,80,30.26,4.0,Calm,Calm,-,0.01,Snow,Light Snow,0,2013-12-24 00:25:00
7:35 PM,26.6,21.2,80,30.27,7.0,West,5.8,-,0.01,,Overcast,260,2013-12-24 00:35:00
7:42 PM,26.6,21.2,80,30.27,9.0,North,-9999.0,-,0.01,,Overcast,0,2013-12-24 00:42:00
7:49 PM,26.6,21.2,80,30.27,-9999.0,WSW,9.2,-,0.01,,Unknown,250,2013-12-24 00:49:00
7:53 PM,26.1,19.9,78,30.31,-9999.0,WSW,10.4,-,0.01,,Unknown,250,2013-12-24 00:53:00
8:53 PM,25.0,19.0,78,30.31,10.0,WSW,6.9,-,0.00,,Overcast,250,2013-12-24 01:53:00
9:53 PM,21.9,16.0,78,30.31,10.0,West,9.2,-,N/A,,Overcast,260,2013-12-24 02:53:00
10:53 PM,21.0,15.1,78,30.31,10.0,West,11.5,-,N/A,,Overcast,260,2013-12-24 03:53:00
11:53 PM,19.9,14.0,78,30.31,10.0,West,10.4,-,N/A,,Overcast,260,2013-12-24 04:53:00